Location: Unspecified
(0.0000°N, 0.0000°E)
Time: 05:47:03
(UTC+00:00)

Tiros 1 - Pass Details

Date: 04 October 2020
Orbit: 630 x 663 km, 48.4° (Epoch: 28 October)

Event Time Altitude Azimuth Distance (km) Brightness Sun altitude
Rises 10:34:28 0° 254° (WSW) 2,909 10.3 70.9°
Reaches altitude 10° 10:37:55 10° 281° (W) 2,002 9.6 71.8°
Maximum altitude 10:40:09 13° 310° (NW) 1,786 9.4 72.3°
Drops below altitude 10° 10:42:24 10° 340° (NNW) 2,004 9.7 72.8°
Sets 10:45:52 0° 7° (N) 2,914 10.5 73.7°
